Location: Rancho Del Sol Observatory
(38.7214°N, 120.6350°W)
Time: 17:16:54
(UTC-08:00)

Courier 1B - Pass Details

Date: 18 January 2020
Orbit: 962 x 1209 km, 28.3° (Epoch: 21 February)

Event Time Altitude Azimuth Distance (km) Brightness Sun altitude
Exits shadow 04:56:59 15° 206° (SSW) 2,751 9.6 -27.2°
Maximum altitude 05:01:42 26° 161° (SSE) 2,161 9.5 -26.3°
Drops below altitude 10° 05:07:54 10° 108° (ESE) 3,141 11.2 -25.1°
Sets 05:11:17 0° 97° (E) 4,102 12.2 -24.4°
